FW1276 Princess Anne MD US current weather conditions

sailwx.info

Wind from 197

Air temperature 21.1° C
Dewpoint 19.6° C

Last reported at 2020-Sep-24 15:04 UTC.
Time now 2020-Sep-24 15:19 UTC

Location: N 38°12' W 075°42'.
View on Google Maps.

See reports from other nearby stations

  
Tides and Currents Weather Stations Pressure Air Temp Water Temp Dewpoint Dewpoint Depression Visibility Wind Speed Wind Dir Waves Ship Positions
date/time (UTC)wind fromknots sea level pressurealtimeterstation pressurevisibilityair tempwater tempwave heightnotes
2020-Sep-24 15:04 197 21.1
2020-Sep-24 14:59 288 20.6
2020-Sep-24 14:54 089 20.6
2020-Sep-24 14:49 287 20.0
2020-Sep-24 14:44 293 20.0
2020-Sep-24 14:39 293 19.4
2020-Sep-24 14:34 295 19.4
2020-Sep-24 14:29 294 19.4
2020-Sep-24 14:24 294 19.4
2020-Sep-24 14:19 293 19.4
2020-Sep-24 14:14 273 19.4
2020-Sep-24 14:09 288 18.9
2020-Sep-24 14:04 288 18.9
2020-Sep-24 13:59 288 18.9
2020-Sep-24 13:54 248 18.9
2020-Sep-24 13:49 239 18.3
2020-Sep-24 13:44 239 18.3
2020-Sep-24 13:39 239 18.3
2020-Sep-24 13:34 239 17.8
2020-Sep-24 13:29 239 17.8
2020-Sep-24 13:09 239 17.2
2020-Sep-24 13:04 239 17.2
2020-Sep-24 12:59 239 16.7
2020-Sep-24 12:54 239 16.7
2020-Sep-24 12:49 239 16.7
2020-Sep-24 12:44 239 16.1
2020-Sep-24 12:39 239 16.1
2020-Sep-24 12:34 238 15.6
2020-Sep-24 12:29 239 15.6
2020-Sep-24 12:24 239 15.6
2020-Sep-24 12:19 239 15.0
2020-Sep-24 12:13 239 15.0
2020-Sep-24 12:08 239 15.0
2020-Sep-24 12:04 239 14.4
2020-Sep-24 11:58 239 14.4
2020-Sep-24 11:53 239 14.4
2020-Sep-24 11:48 239 13.9
2020-Sep-24 11:43 240 13.9
2020-Sep-24 11:38 239 13.9
2020-Sep-24 11:33 240 13.9
2020-Sep-24 11:28 240 13.9
2020-Sep-24 11:23 239 13.9
2020-Sep-24 11:18 239 13.3
2020-Sep-24 11:13 239 13.3
2020-Sep-24 11:08 239 13.3
2020-Sep-24 11:03 239 13.3
2020-Sep-24 10:58 239 13.3
2020-Sep-24 10:53 239 13.3
2020-Sep-24 10:48 239 13.3
2020-Sep-24 10:43 239 13.3
2020-Sep-24 10:38 239 13.3
2020-Sep-24 10:33 239 13.3
2020-Sep-24 10:28 239 13.3
2020-Sep-24 10:23 239 13.3
2020-Sep-24 10:18 240 13.3
2020-Sep-24 10:13 239 13.3
2020-Sep-24 10:08 239 13.3
2020-Sep-24 10:03 239 13.3
2020-Sep-24 09:58 240 13.3
2020-Sep-24 09:53 239 13.3
2020-Sep-24 09:48 239 13.3
2020-Sep-24 09:43 239 13.3
2020-Sep-24 09:38 239 13.3
2020-Sep-24 09:33 239 13.3
2020-Sep-24 09:28 239 13.3
2020-Sep-24 09:23 239 13.3
2020-Sep-24 09:18 239 13.3
2020-Sep-24 09:13 239 13.3
2020-Sep-24 09:08 239 13.3
2020-Sep-24 09:03 240 13.3
2020-Sep-24 08:58 240 13.3
2020-Sep-24 08:53 239 13.3
2020-Sep-24 08:48 239 13.3
2020-Sep-24 08:43 239 13.3
2020-Sep-24 08:38 238 13.3
2020-Sep-24 08:33 239 13.3
2020-Sep-24 08:28 239 13.3
2020-Sep-24 08:23 239 13.3
2020-Sep-24 08:18 239 13.3
2020-Sep-24 08:13 239 13.3
2020-Sep-24 08:08 239 13.3
2020-Sep-24 08:03 239 13.3
2020-Sep-24 07:58 239 13.3
2020-Sep-24 07:53 239 13.3
2020-Sep-24 07:48 239 13.3
2020-Sep-24 07:43 239 13.3
2020-Sep-24 07:38 239 13.3
2020-Sep-24 07:33 239 13.3
2020-Sep-24 07:28 239 13.3
2020-Sep-24 07:23 239 13.3
2020-Sep-24 07:18 239 13.3
2020-Sep-24 07:13 239 13.3
2020-Sep-24 07:08 239 13.3
2020-Sep-24 07:03 239 13.3
2020-Sep-24 06:58 239 13.3
2020-Sep-24 06:53 239 13.3
2020-Sep-24 06:48 240 13.3
2020-Sep-24 06:43 239 13.3
2020-Sep-24 06:38 239 13.3
2020-Sep-24 06:33 239 13.3
2020-Sep-24 06:27 239 13.3
2020-Sep-24 06:22 239 13.3
2020-Sep-24 06:17 239 13.9
2020-Sep-24 06:12 239 13.9
2020-Sep-24 06:07 239 13.9
2020-Sep-24 06:02 239 13.9
2020-Sep-24 05:57 239 13.9
2020-Sep-24 05:52 239 13.9
2020-Sep-24 05:47 239 13.9
2020-Sep-24 05:42 239 13.9
2020-Sep-24 05:37 239 13.9
2020-Sep-24 05:32 239 13.9
2020-Sep-24 05:27 239 13.9
2020-Sep-24 05:22 239 13.9
2020-Sep-24 05:17 239 13.9
2020-Sep-24 05:12 240 13.9
2020-Sep-24 05:07 239 13.9
2020-Sep-24 05:02 239 13.9
2020-Sep-24 04:57 239 13.9
2020-Sep-24 04:52 239 13.9
2020-Sep-24 04:47 239 13.9
2020-Sep-24 04:42 239 13.9
2020-Sep-24 04:37 239 13.9
2020-Sep-24 04:32 239 13.9
2020-Sep-24 04:27 240 13.9
2020-Sep-24 04:22 239 13.9
2020-Sep-24 04:17 239 13.9
2020-Sep-24 04:12 239 13.9
2020-Sep-24 04:07 239 13.9
2020-Sep-24 04:02 239 13.9
2020-Sep-24 03:57 238 13.9
2020-Sep-24 03:52 239 13.9
2020-Sep-24 03:47 239 13.9
2020-Sep-24 03:42 239 13.9
2020-Sep-24 03:37 239 13.9
2020-Sep-24 03:32 239 13.9
2020-Sep-24 03:27 239 14.4
2020-Sep-24 03:22 239 14.4
2020-Sep-24 03:17 240 14.4
2020-Sep-24 03:12 239 13.9
2020-Sep-24 03:06 239 13.9
2020-Sep-24 03:01 238 13.9
2020-Sep-24 02:56 239 13.9
2020-Sep-24 02:51 239 14.4
2020-Sep-24 02:46 239 14.4
2020-Sep-24 02:41 239 14.4
2020-Sep-24 02:36 239 14.4
2020-Sep-24 02:31 239 14.4
2020-Sep-24 02:26 239 14.4
2020-Sep-24 02:21 239 14.4
2020-Sep-24 02:16 240 14.4
2020-Sep-24 02:11 239 14.4
2020-Sep-24 02:06 239 14.4
2020-Sep-24 02:01 239 14.4
2020-Sep-24 01:56 240 14.4
2020-Sep-24 01:51 239 15.0
2020-Sep-24 01:46 239 15.0
2020-Sep-24 01:41 239 15.0
2020-Sep-24 01:36 239 15.0
2020-Sep-24 01:31 239 15.0
2020-Sep-24 01:26 240 15.0
2020-Sep-24 01:21 239 15.0
2020-Sep-24 01:16 239 15.6
2020-Sep-24 01:11 239 15.6
2020-Sep-24 01:06 239 15.6
2020-Sep-24 01:01 238 15.6
2020-Sep-24 00:56 239 15.6
2020-Sep-24 00:51 239 16.1
2020-Sep-24 00:46 239 16.1
2020-Sep-24 00:41 239 16.1
2020-Sep-24 00:36 239 16.1
2020-Sep-24 00:31 239 16.1
2020-Sep-24 00:26 239 16.1
2020-Sep-24 00:21 239 16.1
2020-Sep-24 00:16 239 16.1
2020-Sep-24 00:11 239 16.7
2020-Sep-24 00:06 239 16.7
2020-Sep-24 00:01 239 16.7
2020-Sep-23 23:56 239 16.7
2020-Sep-23 23:50 239 16.7
2020-Sep-23 23:46 239 17.2
2020-Sep-23 23:40 239 17.2
2020-Sep-23 23:35 239 17.8
2020-Sep-23 23:30 239 17.8
2020-Sep-23 23:25 239 18.3
2020-Sep-23 23:20 238 18.3
2020-Sep-23 23:15 239 18.9
2020-Sep-23 23:10 239 18.9
2020-Sep-23 23:05 239 19.4
2020-Sep-23 23:00 239 19.4
2020-Sep-23 22:55 240 20.0
2020-Sep-23 22:50 239 20.6
2020-Sep-23 22:45 239 20.6
2020-Sep-23 22:40 239 21.1
2020-Sep-23 22:35 239 21.7
2020-Sep-23 22:30 239 21.7
2020-Sep-23 22:25 239 22.2
2020-Sep-23 22:20 239 22.8
2020-Sep-23 22:15 242 0 gusting 2 23.3
2020-Sep-23 22:10 267 0 gusting 3 23.3
2020-Sep-23 22:05 276 1 gusting 3 24.4
2020-Sep-23 22:00 233 0 gusting 2 24.4
2020-Sep-23 21:55 275 0 gusting 3 24.4
2020-Sep-23 21:50 281 0 gusting 4 24.4
2020-Sep-23 21:45 292 0 gusting 4 24.4
2020-Sep-23 21:40 287 0 gusting 4 24.4
2020-Sep-23 21:35 283 1 gusting 6 24.4
2020-Sep-23 21:30 307 1 gusting 6 24.4
2020-Sep-23 21:25 274 1 gusting 6 24.4
2020-Sep-23 21:20 307 1 gusting 4 24.4
2020-Sep-23 21:15 266 1 gusting 7 24.4
2020-Sep-23 21:10 311 1 gusting 7 24.4
2020-Sep-23 21:05 227 2 gusting 6 24.4
2020-Sep-23 21:00 288 1 gusting 6 24.4
2020-Sep-23 20:55 257 1 gusting 6 25.0
2020-Sep-23 20:50 310 1 gusting 6 25.0
2020-Sep-23 20:45 273 1 gusting 5 25.0
2020-Sep-23 20:35 283 1 gusting 6 25.0
2020-Sep-23 20:25 197 1 gusting 7 25.0
2020-Sep-23 20:20 280 1 gusting 5 25.0
2020-Sep-23 20:15 324 1 gusting 8 25.0
2020-Sep-23 20:10 210 2 gusting 8 25.6
2020-Sep-23 20:05 238 2 gusting 6 25.6
2020-Sep-23 19:55 280 1 gusting 5 25.6
2020-Sep-23 19:50 264 1 gusting 3 25.6
2020-Sep-23 19:40 252 1 gusting 6 26.1
2020-Sep-23 19:35 301 0 gusting 4 26.1
2020-Sep-23 19:24 283 1 gusting 4 25.6
2020-Sep-23 19:19 019 2 gusting 6 25.6
2020-Sep-23 19:14 295 2 gusting 6 25.6
2020-Sep-23 19:10 276 1 gusting 5 25.6
2020-Sep-23 19:04 284 1 gusting 5 25.6
2020-Sep-23 18:59 264 1 gusting 5 25.6
2020-Sep-23 18:54 271 1 gusting 5 25.6
2020-Sep-23 18:49 115 0 gusting 5 25.6
2020-Sep-23 18:44 326 1 gusting 5 25.6
2020-Sep-23 18:39 249 0 gusting 3 25.6
2020-Sep-23 18:34 279 1 gusting 3 25.0
2020-Sep-23 18:29 317 1 gusting 5 25.0
2020-Sep-23 18:24 300 2 gusting 5 25.0
2020-Sep-23 18:19 264 1 gusting 4 25.0
2020-Sep-23 18:14 246 1 gusting 6 25.0
2020-Sep-23 18:09 317 1 gusting 6 25.0
2020-Sep-23 18:04 293 1 gusting 6 25.0
2020-Sep-23 17:59 044 1 gusting 6 25.0
2020-Sep-23 17:54 239 1 gusting 5 25.0
2020-Sep-23 17:49 213 1 gusting 5 25.0
2020-Sep-23 17:44 288 1 gusting 4 25.0
2020-Sep-23 17:39 307 1 gusting 4 25.0
2020-Sep-23 17:34 293 1 gusting 5 24.4
2020-Sep-23 17:29 283 1 gusting 5 24.4
2020-Sep-23 17:24 252 2 gusting 6 24.4
2020-Sep-23 17:19 322 1 gusting 6 24.4
2020-Sep-23 17:14 295 1 gusting 5 24.4
2020-Sep-23 17:09 299 2 gusting 6 24.4
2020-Sep-23 17:04 299 2 gusting 6 24.4
2020-Sep-23 16:59 288 2 gusting 6 23.9
2020-Sep-23 16:54 187 2 gusting 6 24.4
2020-Sep-23 16:49 117 1 gusting 3 24.4
2020-Sep-23 16:44 312 1 gusting 4 24.4
2020-Sep-23 16:39 277 1 gusting 4 24.4
2020-Sep-23 16:34 262 0 gusting 3 24.4
2020-Sep-23 16:29 298 0 gusting 3 23.9
2020-Sep-23 16:24 298 1 gusting 4 23.9
2020-Sep-23 16:19 277 1 gusting 5 23.9
2020-Sep-23 16:14 274 1 gusting 6 23.3
2020-Sep-23 16:09 245 0 gusting 6 23.3
2020-Sep-23 16:04 287 23.3
2020-Sep-23 15:59 262 0 gusting 3 23.3
2020-Sep-23 15:54 262 1 gusting 3 23.3
2020-Sep-23 15:49 195 0 gusting 2 23.3
2020-Sep-23 15:44 271 0 gusting 2 22.8
2020-Sep-23 15:39 276 0 gusting 3 22.8
2020-Sep-23 15:34 281 0 gusting 3 22.8
2020-Sep-23 15:29 281 0 gusting 5 22.2
2020-Sep-23 15:24 278 0 gusting 5 22.2
2020-Sep-23 15:19 257 1 gusting 5 21.7
2020-Sep-23 15:14 295 1 gusting 3 21.7
2020-Sep-23 15:09 231 1 gusting 3 21.7
2020-Sep-23 15:04 268 0 gusting 6 21.7
2020-Sep-23 14:59 016 0 gusting 6 21.7
2020-Sep-23 14:54 255 0 gusting 4 21.1
2020-Sep-23 14:49 275 0 gusting 4 21.1
2020-Sep-23 14:44 290 0 gusting 3 20.6
2020-Sep-23 14:39 240 0 gusting 3 20.6
2020-Sep-23 14:34 252 0 gusting 3 20.0
2020-Sep-23 14:29 284 1 gusting 3 19.4
2020-Sep-23 14:24 250 0 gusting 3 18.9
2020-Sep-23 14:19 281 0 gusting 2 18.9
2020-Sep-23 14:14 285 0 gusting 2 18.3
2020-Sep-23 14:09 332 0 gusting 4 17.8
2020-Sep-23 14:04 239 0 gusting 4 17.8
2020-Sep-23 13:58 302 0 gusting 3 17.2
2020-Sep-23 13:53 239 0 gusting 3 17.2
2020-Sep-23 13:48 274 0 gusting 2 16.7
2020-Sep-23 13:43 194 16.7
2020-Sep-23 13:38 201 16.7
2020-Sep-23 13:33 134 16.1
2020-Sep-23 13:28 262 16.1
2020-Sep-23 13:23 245 16.1
2020-Sep-23 13:18 255 0 gusting 3 15.6
2020-Sep-23 13:13 300 15.6
2020-Sep-23 13:08 241 15.6
2020-Sep-23 13:03 242 15.6
2020-Sep-23 12:58 242 15.0
2020-Sep-23 12:53 242 15.0
2020-Sep-23 12:48 241 14.4
2020-Sep-23 12:43 242 13.9
2020-Sep-23 12:38 241 13.3
2020-Sep-23 12:32 242 13.3
2020-Sep-23 12:27 241 12.8
2020-Sep-23 12:23 242 12.2
2020-Sep-23 12:17 242 11.7
2020-Sep-23 12:12 242 11.7
2020-Sep-23 12:07 241 11.1
2020-Sep-23 12:02 242 11.1
2020-Sep-23 11:57 241 10.6
2020-Sep-23 11:52 242 10.6
2020-Sep-23 11:47 241 10.0
2020-Sep-23 11:42 242 10.0
2020-Sep-23 11:37 242 10.0
2020-Sep-23 11:32 242 10.0
2020-Sep-23 11:27 242 9.4
2020-Sep-23 11:22 242 9.4
2020-Sep-23 11:17 242 9.4
2020-Sep-23 11:12 242 9.4
2020-Sep-23 11:07 241 9.4
2020-Sep-23 11:02 241 9.4
2020-Sep-23 10:57 241 9.4
2020-Sep-23 10:52 242 9.4
2020-Sep-23 10:47 242 10.0
2020-Sep-23 10:41 242 10.0
2020-Sep-23 10:36 241 10.0
2020-Sep-23 10:31 241 10.0
2020-Sep-23 10:26 242 10.0
2020-Sep-23 10:21 242 10.0
2020-Sep-23 10:16 241 10.0
2020-Sep-23 10:11 242 10.0
2020-Sep-23 10:06 242 10.0
2020-Sep-23 10:01 241 10.0
2020-Sep-23 09:56 242 10.0
2020-Sep-23 09:51 242 10.0
2020-Sep-23 09:46 241 10.0
2020-Sep-23 09:41 242 10.0
2020-Sep-23 09:36 241 10.6
2020-Sep-23 09:31 241 10.6
2020-Sep-23 09:26 242 10.6
2020-Sep-23 09:21 241 10.6
2020-Sep-23 09:16 242 10.6
2020-Sep-23 09:11 241 10.6
2020-Sep-23 09:06 242 10.6
2020-Sep-23 09:01 242 10.6
2020-Sep-23 08:56 241 10.6
2020-Sep-23 08:51 242 10.6
2020-Sep-23 08:46 242 11.1
2020-Sep-23 08:41 242 11.1
2020-Sep-23 08:36 242 11.1
2020-Sep-23 08:31 241 11.1
2020-Sep-23 08:26 242 11.1
2020-Sep-23 08:21 242 11.1
2020-Sep-23 08:16 242 11.7
2020-Sep-23 08:11 242 11.7
2020-Sep-23 08:06 242 11.7
2020-Sep-23 08:01 241 11.7
2020-Sep-23 07:56 241 11.7
2020-Sep-23 07:51 242 11.7
2020-Sep-23 07:46 241 11.7
2020-Sep-23 07:41 242 11.7
2020-Sep-23 07:36 242 11.7
2020-Sep-23 07:31 242 11.7
2020-Sep-23 07:26 241 11.7
2020-Sep-23 07:21 242 11.7
2020-Sep-23 07:16 241 11.7
2020-Sep-23 07:11 241 12.2
2020-Sep-23 07:06 242 12.2
2020-Sep-23 07:01 241 12.2
2020-Sep-23 06:56 241 12.2
2020-Sep-23 06:50 241 12.2
2020-Sep-23 06:45 241 12.2
2020-Sep-23 06:40 241 12.2
2020-Sep-23 06:35 241 12.2
2020-Sep-23 06:31 242 12.2
2020-Sep-23 06:25 242 12.2
2020-Sep-23 06:21 242 12.2
2020-Sep-23 06:15 242 12.2
2020-Sep-23 06:10 241 12.2
2020-Sep-23 06:05 241 12.2
2020-Sep-23 06:00 241 12.2
2020-Sep-23 05:55 241 12.2
2020-Sep-23 05:50 241 12.2
2020-Sep-23 05:45 241 12.2
2020-Sep-23 05:40 242 12.2
2020-Sep-23 05:35 241 12.2
2020-Sep-23 05:30 241 12.2
2020-Sep-23 05:25 241 12.2
2020-Sep-23 05:20 242 12.2
2020-Sep-23 05:15 242 12.2
2020-Sep-23 05:10 243 11.7
2020-Sep-23 05:05 243 11.7
2020-Sep-23 05:00 243 11.7
2020-Sep-23 04:55 243 11.7
2020-Sep-23 04:50 243 11.7
2020-Sep-23 04:45 243 11.7
2020-Sep-23 04:40 243 11.7
2020-Sep-23 04:35 248 11.1
2020-Sep-23 04:30 248 11.1
2020-Sep-23 04:25 248 11.1
2020-Sep-23 04:20 248 11.1
2020-Sep-23 04:15 248 11.1
2020-Sep-23 04:10 248 11.1
2020-Sep-23 04:05 248 11.1
2020-Sep-23 04:00 248 11.1
2020-Sep-23 03:55 248 11.1
2020-Sep-23 03:50 248 11.1
2020-Sep-23 03:45 248 10.6
2020-Sep-23 03:40 248 10.6
2020-Sep-23 03:35 248 10.6
2020-Sep-23 03:30 248 10.6
2020-Sep-23 03:25 248 11.1
2020-Sep-23 03:20 248 11.1
2020-Sep-23 03:15 248 11.1
2020-Sep-23 03:10 248 11.1
2020-Sep-23 03:05 248 11.1
2020-Sep-23 03:00 248 11.1
2020-Sep-23 02:55 248 11.1
2020-Sep-23 02:50 248 11.7
2020-Sep-23 02:45 248 11.7
2020-Sep-23 02:40 248 11.7
2020-Sep-23 02:35 248 11.7
2020-Sep-23 02:30 248 11.7
2020-Sep-23 02:25 248 11.7
2020-Sep-23 02:20 248 11.7
2020-Sep-23 02:15 248 11.7
2020-Sep-23 02:10 248 11.7
2020-Sep-23 02:05 248 11.7
2020-Sep-23 01:55 248 11.7
2020-Sep-23 01:50 248 11.7
2020-Sep-23 01:40 248 12.2
2020-Sep-23 01:35 248 12.2
2020-Sep-23 01:25 248 12.2
2020-Sep-23 01:20 248 12.2
2020-Sep-23 01:15 248 12.2
2020-Sep-23 01:10 248 12.2
2020-Sep-23 01:05 248 12.2
2020-Sep-23 00:59 248 12.2
2020-Sep-23 00:54 248 12.2
2020-Sep-23 00:49 248 12.8
2020-Sep-23 00:44 248 12.8
2020-Sep-23 00:39 248 12.8
2020-Sep-23 00:34 248 12.8
2020-Sep-23 00:29 248 12.8
2020-Sep-23 00:24 248 13.3
2020-Sep-23 00:19 248 13.3
2020-Sep-23 00:14 248 13.3
2020-Sep-23 00:09 248 13.3
2020-Sep-23 00:04 248 13.3
2020-Sep-22 23:59 248 13.3
2020-Sep-22 23:54 248 13.3
2020-Sep-22 23:49 248 13.9
2020-Sep-22 23:44 257 13.9
2020-Sep-22 23:39 257 13.9
2020-Sep-22 23:34 257 14.4
2020-Sep-22 23:29 257 14.4
2020-Sep-22 23:24 257 15.0
2020-Sep-22 23:19 257 15.0
2020-Sep-22 23:14 257 15.6
2020-Sep-22 23:09 257 16.1
2020-Sep-22 23:04 257 16.1
2020-Sep-22 22:59 257 16.7
2020-Sep-22 22:54 257 16.7
2020-Sep-22 22:49 257 17.2
2020-Sep-22 22:44 257 17.8
2020-Sep-22 22:39 257 18.3
2020-Sep-22 22:34 257 18.3
2020-Sep-22 22:29 269 19.4
2020-Sep-22 22:24 268 19.4
2020-Sep-22 22:19 269 20.6
2020-Sep-22 22:14 268 21.1
2020-Sep-22 22:09 252 21.1
2020-Sep-22 22:04 252 21.1
2020-Sep-22 21:59 252 0 gusting 3 21.1
2020-Sep-22 21:54 288 1 gusting 4 21.1
2020-Sep-22 21:49 246 0 gusting 4 21.1
2020-Sep-22 21:44 252 1 gusting 6 21.1
2020-Sep-22 21:39 302 1 gusting 6 21.1
2020-Sep-22 21:34 278 1 gusting 5 21.1
2020-Sep-22 21:29 287 1 gusting 5 21.1
2020-Sep-22 21:24 291 1 gusting 6 21.1
2020-Sep-22 21:19 271 1 gusting 6 21.1
2020-Sep-22 21:14 300 1 gusting 6 21.1
2020-Sep-22 21:09 001 1 gusting 6 21.1
2020-Sep-22 21:04 005 1 gusting 6 21.7
2020-Sep-22 20:59 275 1 gusting 6 21.1
2020-Sep-22 20:54 235 1 gusting 5 21.7
2020-Sep-22 20:48 252 1 gusting 5 21.7
2020-Sep-22 20:43 284 1 gusting 6 21.7
2020-Sep-22 20:38 225 1 gusting 6 21.1
2020-Sep-22 20:33 186 1 gusting 6 21.7
2020-Sep-22 20:28 295 1 gusting 6 21.7
2020-Sep-22 20:23 252 1 gusting 6 21.7
2020-Sep-22 20:18 260 2 gusting 6 21.7
2020-Sep-22 20:13 285 2 gusting 6 21.7
2020-Sep-22 20:08 284 1 gusting 5 22.2
2020-Sep-22 20:03 284 1 gusting 4 22.2
2020-Sep-22 19:58 103 0 gusting 4 21.7
2020-Sep-22 19:53 290 1 gusting 4 21.7
2020-Sep-22 19:48 092 1 gusting 5 21.7
2020-Sep-22 19:43 271 1 gusting 5 21.7
2020-Sep-22 19:38 290 1 gusting 9 21.1
2020-Sep-22 19:33 316 1 gusting 9 21.1
2020-Sep-22 19:28 232 1 gusting 6 21.1
2020-Sep-22 19:23 301 2 gusting 6 21.1
2020-Sep-22 19:18 299 2 gusting 7 21.1
2020-Sep-22 19:13 023 2 gusting 7 20.6
2020-Sep-22 19:08 278 3 gusting 7 20.6
2020-Sep-22 19:03 314 3 gusting 7 20.6
2020-Sep-22 18:58 298 1 gusting 5 21.1
2020-Sep-22 18:53 269 1 gusting 7 21.1
2020-Sep-22 18:48 226 2 gusting 7 21.1
2020-Sep-22 18:43 317 2 gusting 6 21.1
2020-Sep-22 18:38 203 2 gusting 7 20.6
2020-Sep-22 18:33 338 2 gusting 7 20.6
2020-Sep-22 18:28 338 2 gusting 7 20.6
2020-Sep-22 18:23 249 2 gusting 6 21.1
2020-Sep-22 18:18 285 2 gusting 7 21.1
2020-Sep-22 18:13 250 1 gusting 7 21.1
2020-Sep-22 18:08 319 1 gusting 6 20.6
2020-Sep-22 18:03 285 1 gusting 6 20.6
2020-Sep-22 17:58 307 2 gusting 6 20.6
2020-Sep-22 17:53 267 2 gusting 6 20.6
2020-Sep-22 17:48 257 2 gusting 7 20.6
2020-Sep-22 17:43 338 2 gusting 7 20.6
2020-Sep-22 17:38 243 1 gusting 5 20.6
2020-Sep-22 17:33 245 2 gusting 7 20.6
2020-Sep-22 17:28 335 2 gusting 7 20.0
2020-Sep-22 17:23 252 1 gusting 4 20.6
2020-Sep-22 17:18 275 1 gusting 8 20.0
2020-Sep-22 17:13 241 1 gusting 8 20.0
2020-Sep-22 17:08 298 2 gusting 6 20.0
2020-Sep-22 17:03 277 1 gusting 6 20.0
2020-Sep-22 16:58 148 1 gusting 6 20.0
2020-Sep-22 16:53 239 1 gusting 5 20.0
2020-Sep-22 16:48 285 1 gusting 6 20.0
2020-Sep-22 16:43 332 2 gusting 6 19.4
2020-Sep-22 16:38 309 1 gusting 6 19.4
2020-Sep-22 16:33 329 1 gusting 6 19.4
2020-Sep-22 16:28 305 1 gusting 6 19.4
2020-Sep-22 16:23 241 1 gusting 4 19.4
2020-Sep-22 16:18 239 1 gusting 6 19.4
2020-Sep-22 16:13 280 2 gusting 6 18.9
2020-Sep-22 16:08 261 1 gusting 5 18.9
2020-Sep-22 16:03 248 1 gusting 6 18.9
2020-Sep-22 15:58 232 2 gusting 6 18.9
2020-Sep-22 15:53 313 1 gusting 5 18.9
2020-Sep-22 15:48 179 1 gusting 7 18.9
2020-Sep-22 15:43 071 1 gusting 7 18.3
2020-Sep-22 15:38 046 1 gusting 6 18.3
2020-Sep-22 15:33 338 1 gusting 6 18.3
2020-Sep-22 15:28 274 1 gusting 6 18.3
2020-Sep-22 15:22 144 1 gusting 6 17.8
2020-Sep-22 15:18 091 1 gusting 6 17.8
2020-Sep-22 15:12 293 1 gusting 5 17.8
2020-Sep-22 15:07 261 1 gusting 5 17.8
2020-Sep-22 15:02 139 1 gusting 8 17.2